Location: Bourg-d�Oueil
(42.8588°N, 0.4991°E)
Time: 15:10:45
(UTC+00:00)

Meteor 2-20 - Pass Details

Date: 16 June 2021
Orbit: 939 x 958 km, 82.5° (Epoch: 01 August)

Event Time Altitude Azimuth Distance (km) Brightness Sun altitude
Rises 20:39:13 0° 182° (S) 3,609 7.1 -9.4°
Reaches altitude 10° 20:41:42 10° 181° (S) 2,665 6.4 -9.7°
Maximum altitude 20:47:47 78° 96° (E) 970 4.4 -10.5°
Drops below altitude 10° 20:53:53 10° 11° (N) 2,670 7.3 -11.3°
Sets 20:56:22 0° 10° (N) 3,616 8.1 -11.6°
